This is the latest recevied weather packets stored in our database for station/object F4GQK-13. If no packets are shown the sender has not sent any weather packets the latest 10 day(s).
| Time | Temp. | Humidity | Pressure | Rain* | Wind** | Luminosity | Snow |
|---|---|---|---|---|---|---|---|
| 1777725605 | 26.11° C | 53% | 1017.2 hPa | 0 mm | - | 793 W/m² | - |
| 1777725306 | 25.56° C | 53% | 1017.4 hPa | 0 mm | - | 809 W/m² | - |
| 1777725005 | 25.56° C | 53% | 1017.3 hPa | 0 mm | - | 770 W/m² | - |
| 1777724705 | 25.56° C | 54% | 1017.4 hPa | 0 mm | - | 772 W/m² | - |
| 1777724405 | 25.56° C | 54% | 1017.6 hPa | 0 mm | - | 760 W/m² | - |
| 1777724105 | 26.11° C | 54% | 1017.5 hPa | 0 mm | - | 743 W/m² | - |
| 1777723803 | 26.11° C | 55% | 1017.5 hPa | 0 mm | - | 762 W/m² | - |
| 1777723505 | 25.56° C | 57% | 1017.8 hPa | 0 mm | - | 807 W/m² | - |
| 1777723205 | 25° C | 57% | 1017.7 hPa | 0 mm | - | 735 W/m² | - |
| 1777722905 | 24.44° C | 58% | 1017.9 hPa | 0 mm | - | 729 W/m² | - |
| 1777722605 | 24.44° C | 57% | 1017.8 hPa | 0 mm | - | 766 W/m² | - |
| 1777722305 | 24.44° C | 56% | 1017.7 hPa | 0 mm | - | 772 W/m² | - |
| 1777722005 | 24.44° C | 56% | 1017.8 hPa | 0 mm | - | 755 W/m² | - |
| 1777721705 | 24.44° C | 60% | 1018.2 hPa | 0 mm | - | 755 W/m² | - |
| 1777721405 | 24.44° C | 61% | 1018.1 hPa | 0 mm | - | 773 W/m² | - |
| 1777721105 | 24.44° C | 61% | 1018.1 hPa | 0 mm | - | 705 W/m² | - |
| 1777720805 | 24.44° C | 61% | 1018.1 hPa | 0 mm | - | 743 W/m² | - |
| 1777720505 | 24.44° C | 62% | 1018.1 hPa | 0 mm | - | 742 W/m² | - |
| 1777720205 | 23.89° C | 66% | 1018.2 hPa | 0 mm | - | 747 W/m² | - |
| 1777719905 | 23.89° C | 65% | 1018.2 hPa | 0 mm | - | 282 W/m² | - |
| 1777719605 | 24.44° C | 64% | 1018.5 hPa | 0 mm | - | 720 W/m² | - |
| 1777719305 | 23.89° C | 64% | 1018.6 hPa | 0 mm | - | 740 W/m² | - |
| 1777719005 | 24.44° C | 64% | 1018.4 hPa | 0 mm | - | 732 W/m² | - |
| 1777718404 | 23.89° C | 68% | 1018.5 hPa | 0 mm | - | 718 W/m² | - |
| 1777718105 | 23.33° C | 72% | 1018.7 hPa | 0 mm | - | 703 W/m² | - |
* Rain latest hour (hover to see other rain measurements)
** Current wind speed in m/s (hover to see current wind gust speed)